Date String (YYYY-MM-DD hh:mm:ss) UTC,Instrument flags,Ambient pressure (hPa),Sample flow (lpm),Bypass flow (lpm),Sample temperature (°C),Ambient temperature (°C),ASC tube jacket temperature (°C),LED temperature (°C),Box temperature (°C),Sample RH (%),Span deviation,Mass concentration (μg/m³),Mass concentration (μg/m³),Mass concentration (μg/m³)
DateTimeUTC,F1_M11,P_M11,Q1_M11,Q2_M11,T1_M11,T2_M11,T3_M11,T4_M11,T5_M11,U1_M11,ZSPAN_M11,X0_M11,X2_M11,X1_M11
2022-04-08 22:00:00,,0826.2,5.00,0.00,27.4,26.9,00.0,36.3,29.2,06.7,0000.0,0010.69,0003.13,0001.72
2022-04-08 22:01:00,,0826.2,5.01,0.00,27.4,26.8,00.0,36.3,29.3,06.5,0000.0,0010.44,0003.12,0001.71
2022-04-08 22:02:00,,0826.2,5.00,0.00,27.5,26.9,00.0,36.3,29.3,06.8,0000.0,0009.22,0003.08,0001.72
2022-04-08 22:03:00,,0826.2,5.01,0.00,27.5,26.9,00.0,36.3,29.3,06.9,0000.0,0009.38,0003.06,0001.74
2022-04-08 22:04:00,,0826.2,5.00,0.00,27.5,26.9,00.0,36.3,29.3,06.9,0000.0,0009.59,0003.10,0001.73
2022-04-08 22:05:00,,0826.2,5.01,0.00,27.5,26.9,00.0,36.3,29.3,06.7,0000.0,0009.67,0003.13,0001.72
2022-04-08 22:06:00,,0826.2,5.00,0.00,27.5,27.0,00.0,36.3,29.3,06.8,0000.0,0010.54,0003.10,0001.73
2022-04-08 22:07:00,,0826.1,5.00,0.00,27.5,27.0,00.0,36.4,29.3,06.8,0000.0,0009.56,0003.07,0001.74
2022-04-08 22:08:00,,0826.2,5.00,0.00,27.5,26.9,00.0,36.4,29.3,07.0,0000.0,0009.45,0003.10,0001.75
2022-04-08 22:09:00,,0826.1,5.00,0.00,27.6,27.0,00.0,36.4,29.4,07.0,0000.0,0009.44,0003.13,0001.74
2022-04-08 22:10:00,,0826.1,4.99,0.00,27.6,27.0,00.0,36.4,29.4,06.9,0000.0,0009.51,0003.11,0001.74
2022-04-08 22:11:00,,0826.1,4.99,0.00,27.6,27.0,00.0,36.4,29.4,06.8,0000.0,0009.68,0003.08,0001.75
2022-04-08 22:12:00,,0826.1,5.00,0.00,27.6,27.1,00.0,36.4,29.4,06.5,0000.0,0010.03,0003.07,0001.75
2022-04-08 22:13:00,,0826.1,5.01,0.00,27.6,27.1,00.0,36.4,29.4,06.5,0000.0,0010.53,0003.08,0001.74
2022-04-08 22:14:00,,0826.2,5.01,0.00,27.6,27.1,00.0,36.5,29.5,06.8,0000.0,0010.24,0003.09,0001.74
2022-04-08 22:15:00,,0826.1,5.00,0.00,27.6,27.1,00.0,36.5,29.4,06.5,0000.0,0010.12,0003.01,0001.73
2022-04-08 22:16:00,,0826.2,5.00,0.00,27.6,27.1,00.0,36.5,29.4,06.4,0000.0,0010.50,0002.95,0001.73
2022-04-08 22:17:00,,0826.1,5.00,0.00,27.7,27.1,00.0,36.5,29.5,06.7,0000.0,0009.60,0002.96,0001.71
2022-04-08 22:18:00,,0826.0,5.00,0.00,27.7,27.1,00.0,36.5,29.5,06.4,0000.0,0009.80,0003.01,0001.70
2022-04-08 22:19:00,,0826.1,5.00,0.00,27.7,27.1,00.0,36.5,29.5,06.8,0000.0,0011.27,0002.98,0001.70
2022-04-08 22:20:00,,0826.1,5.00,0.00,27.7,27.1,00.0,36.5,29.5,06.8,0000.0,0011.31,0002.93,0001.70
2022-04-08 22:21:00,,0826.0,5.00,0.00,27.7,27.1,00.0,36.6,29.5,06.7,0000.0,0011.77,0002.98,0001.70
2022-04-08 22:22:00,,0826.0,4.99,0.00,27.7,27.1,00.0,36.6,29.5,06.7,0000.0,0012.69,0003.03,0001.70
2022-04-08 22:23:00,,0826.0,5.00,0.00,27.7,27.2,00.0,36.6,29.5,06.7,0000.0,0013.22,0003.00,0001.69
2022-04-08 22:24:00,,0826.0,4.99,0.00,27.8,27.2,00.0,36.6,29.6,06.9,0000.0,0012.91,0003.01,0001.68
2022-04-08 22:25:00,,0826.0,5.00,0.00,27.8,27.2,00.0,36.6,29.6,06.7,0000.0,0012.69,0003.00,0001.67
2022-04-08 22:26:00,,0826.0,5.00,0.00,27.8,27.2,00.0,36.6,29.6,07.0,0000.0,0012.53,0002.98,0001.68
2022-04-08 22:27:00,,0826.0,5.00,0.00,27.8,27.2,00.0,36.7,29.6,06.9,0000.0,0012.37,0002.99,0001.69
2022-04-08 22:28:00,,0826.0,5.00,0.00,27.8,27.2,00.0,36.7,29.6,06.7,0000.0,0012.52,0002.96,0001.69
2022-04-08 22:29:00,,0825.9,5.00,0.00,27.8,27.2,00.0,36.7,29.6,06.7,0000.0,0012.29,0002.89,0001.69
2022-04-08 22:30:00,,0825.9,5.02,0.00,27.8,27.3,00.0,36.7,29.6,07.2,0000.0,0011.29,0003.02,0001.69
2022-04-08 22:31:00,,0825.9,4.99,0.00,27.8,27.3,00.0,36.7,29.7,07.0,0000.0,0011.57,0003.11,0001.68
2022-04-08 22:32:00,,0825.9,5.00,0.00,27.9,27.3,00.0,36.7,29.6,06.7,0000.0,0011.13,0003.08,0001.67
2022-04-08 22:33:00,,0825.9,5.00,0.00,27.9,27.3,00.0,36.7,29.7,06.6,0000.0,0009.92,0003.01,0001.65
2022-04-08 22:34:00,,0825.9,5.00,0.00,27.9,27.3,00.0,36.7,29.7,06.4,0000.0,0009.03,0003.01,0001.66
2022-04-08 22:35:00,,0825.9,5.00,0.00,27.9,27.3,00.0,36.7,29.7,06.5,0000.0,0008.88,0003.03,0001.65
2022-04-08 22:36:00,,0825.9,4.99,0.00,27.9,27.3,00.0,36.8,29.7,06.6,0000.0,0009.53,0003.08,0001.66
2022-04-08 22:37:00,,0825.9,5.00,0.00,27.9,27.3,00.0,36.8,29.7,06.7,0000.0,0009.63,0003.10,0001.66
2022-04-08 22:38:00,,0825.9,5.00,0.00,27.9,27.3,00.0,36.8,29.7,06.6,0000.0,0009.12,0003.08,0001.65
2022-04-08 22:39:00,,0825.9,5.00,0.00,27.9,27.3,00.0,36.8,29.7,06.6,0000.0,0008.91,0003.09,0001.64
2022-04-08 22:40:00,,0825.9,5.00,0.00,27.9,27.3,00.0,36.8,29.8,06.7,0000.0,0009.84,0003.10,0001.64
2022-04-08 22:41:00,,0825.9,5.00,0.00,28.0,27.3,00.0,36.8,29.8,06.9,0000.0,0009.40,0003.00,0001.63
2022-04-08 22:42:00,,0825.9,5.00,0.00,28.0,27.4,00.0,36.8,29.8,06.8,0000.0,0009.16,0002.98,0001.64
2022-04-08 22:43:00,,0825.9,5.00,0.00,28.0,27.4,00.0,36.8,29.8,06.7,0000.0,0009.59,0003.08,0001.63
2022-04-08 22:44:00,,0825.9,5.00,0.00,28.0,27.4,00.0,36.8,29.8,06.7,0000.0,0010.82,0003.15,0001.63
2022-04-08 22:45:00,,0825.9,5.00,0.00,28.0,27.4,00.0,36.9,29.8,06.7,0000.0,0011.39,0003.14,0001.63
2022-04-08 22:46:00,,0825.9,5.00,0.00,28.0,27.4,00.0,36.9,29.9,06.7,0000.0,0011.45,0003.13,0001.63
2022-04-08 22:47:00,,0825.8,5.00,0.00,28.0,27.4,00.0,36.9,29.8,06.7,0000.0,0010.74,0003.11,0001.63
2022-04-08 22:48:00,,0825.8,5.00,0.00,28.0,27.4,00.0,36.9,29.9,06.7,0000.0,0010.45,0003.12,0001.61
2022-04-08 22:49:00,,0825.8,5.00,0.00,28.0,27.4,00.0,36.9,29.8,06.7,0000.0,0010.40,0003.11,0001.58
2022-04-08 22:50:00,,0825.8,5.01,0.00,28.1,27.4,00.0,36.9,29.9,06.7,0000.0,0010.25,0003.09,0001.56
2022-04-08 22:51:00,,0825.7,5.00,0.00,28.1,27.4,00.0,36.9,29.9,06.7,0000.0,0009.81,0003.05,0001.53
2022-04-08 22:52:00,,0825.7,5.00,0.00,28.1,27.4,00.0,36.9,29.9,06.7,0000.0,0010.13,0002.98,0001.51
2022-04-08 22:53:00,,0825.7,5.00,0.00,28.1,27.4,00.0,36.9,29.9,06.7,0000.0,0009.78,0002.83,0001.47
2022-04-08 22:54:00,,0825.7,5.00,0.00,28.1,27.4,00.0,36.9,29.9,06.9,0000.0,0009.07,0002.64,0001.45
2022-04-08 22:55:00,,0825.7,4.99,0.00,28.1,27.4,00.0,36.9,29.9,06.7,0000.0,0007.87,0002.53,0001.42
2022-04-08 22:56:00,,0825.7,5.01,0.00,28.1,27.4,00.0,36.9,29.9,06.4,0000.0,0007.14,0002.51,0001.39
2022-04-08 22:57:00,,0825.8,4.99,0.00,28.1,27.4,00.0,37.0,29.9,06.7,0000.0,0006.74,0002.46,0001.35
2022-04-08 22:58:00,,0825.6,5.01,0.00,28.1,27.4,00.0,37.0,29.9,06.6,0000.0,0006.71,0002.45,0001.33
2022-04-08 22:59:00,,0825.6,5.00,0.00,28.1,27.4,00.0,37.0,29.9,06.5,0000.0,0006.47,0002.36,0001.32
